{"data":{"norad_id":40062,"epoch":"2026-05-25T03:32:35.016864Z","epoch_age_seconds":52441,"freshness":"FRESH","line1":"1 40062U 14036B   26145.14762751  .00000022  00000+0  88702-4 0  9999","line2":"2 40062  82.5101 321.9755 0022783 203.7874 156.2155 12.42950121539599","mean_motion":12.42950121,"eccentricity":0.0022783,"inclination_deg":82.5101,"raan_deg":321.9755,"arg_perigee_deg":203.7874,"mean_anomaly_deg":156.2155,"bstar":8.8702e-5,"rev_number":53959,"period_min":115.85340197252,"perigee_km":1476.1866309118,"apogee_km":1512.0573662648,"semimajor_km":7872.2589985883,"source":"CELESTRAK","updated_at":"2026-05-25T13:37:55.466788Z"}}